Wind_Speed
59 58 56 54 53 54 56 56 54 52 50 49 48 47 45 44 42 41 42 43 43 42 41 39 38 36 35 34 33 32 32 32 33 33 33 33 35 39 45 50 55 59 63 72 85 98 113 125 129 125 123 121 119 116 114 111 108 105 101 98 96 96 97
61 59 57 55 54 55 56 56 54 52 50 49 48 47 45 44 43 42 42 43 43 42 42 40 39 37 36 35 33 32 32 32 32 32 33 33 33 36 41 45 49 54 58 64 73 84 98 114 125 127 126 125 122 121 119 117 114 111 108 104 101 98 98
62 60 58 56 55 55 56 57 55 53 50 49 48 46 45 44 43 42 42 43 43 43 42 41 40 39 37 36 34 33 33 33 32 32 32 33 33 34 37 42 45 48 52 57 65 74 84 99 114 123 127 127 126 124 123 122 119 116 113 110 106 103 100
63 61 59 57 56 56 57 57 56 53 50 49 48 46 45 44 44 43 42 43 43 43 43 41 40 40 39 37 35 34 34 34 33 32 32 33 33 33 34 38 42 45 48 51 57 65 73 85 99 113 121 126 127 127 126 125 124 122 119 116 112 109 106
63 61 60 59 58 57 57 57 56 53 50 49 47 46 45 44 44 43 43 43 43 43 43 42 40 40 40 38 36 36 35 34 33 32 32 33 32 32 33 36 39 42 44 47 50 57 64 72 84 99 110 118 123 126 126 126 126 125 123 121 118 115 112
64 62 61 60 58 58 57 57 55 52 50 49 47 46 45 44 44 44 43 43 42 42 42 42 41 41 41 39 38 37 36 35 34 33 33 33 32 31 31 34 37 40 41 43 46 50 55 62 71 83 96 107 115 120 123 125 125 125 125 124 122 120 118
63 62 61 60 58 58 57 56 54 51 50 49 47 45 45 44 44 44 43 43 42 42 41 41 41 41 41 41 39 38 37 36 35 35 34 34 33 31 31 32 35 38 40 41 43 46 49 54 61 70 81 93 104 111 117 122 124 123 123 125 124 123 122
62 62 60 59 58 57 56 55 53 51 50 49 47 45 44 43 44 44 43 43 42 41 41 41 41 40 42 42 40 39 39 37 36 36 35 35 33 31 31 31 32 36 39 40 42 44 45 48 52 59 68 79 91 99 106 115 120 121 121 122 123 123 123
60 60 58 57 57 56 55 54 52 51 50 49 47 45 44 43 43 44 43 43 42 41 41 41 40 40 42 43 41 39 39 39 38 37 36 36 33 32 31 31 30 33 37 39 41 42 43 45 48 52 58 67 78 87 95 104 112 117 119 120 120 121 122
59 58 55 55 55 55 53 52 52 51 51 50 47 45 44 43 43 43 43 43 42 41 41 41 40 41 42 43 41 39 40 41 40 38 38 37 35 32 32 31 30 32 34 37 39 40 42 44 45 47 51 58 66 76 84 93 101 108 115 118 118 118 119
58 55 52 53 55 54 52 51 51 51 51 49 46 44 44 43 42 43 43 43 42 41 41 41 40 41 42 42 40 39 41 42 41 40 39 38 36 33 32 31 31 31 32 35 38 39 40 42 42 44 47 51 58 65 73 82 89 97 104 110 114 115 116
57 53 51 53 53 51 49 49 50 51 50 48 45 43 43 43 42 42 43 43 42 41 41 41 41 41 41 40 39 39 41 42 42 42 41 39 38 34 32 32 32 31 31 33 35 37 38 39 39 40 42 45 51 57 65 72 79 86 92 98 104 109 111
55 52 50 51 50 48 47 47 49 50 48 47 45 43 43 42 41 42 43 43 42 40 40 41 41 41 41 39 38 39 41 43 44 43 42 41 39 36 34 33 32 31 30 30 32 35 36 36 37 36 37 39 44 50 57 65 71 77 83 87 93 98 103
50 48 50 50 48 46 47 46 46 47 47 46 44 43 42 40 40 41 42 42 41 40 40 41 41 41 40 38 37 38 41 44 44 44 44 43 41 38 36 34 32 31 29 28 29 32 33 34 34 34 33 34 37 43 50 58 64 70 74 78 83 88 92
45 45 49 49 45 44 45 46 45 44 44 43 42 41 41 39 39 40 42 42 41 40 40 41 41 41 39 37 36 39 42 43 44 45 45 44 42 40 38 35 33 32 30 27 27 28 30 31 31 31 31 31 33 37 42 50 57 64 68 71 75 78 81
44 45 47 46 43 41 42 44 44 41 41 41 40 40 39 38 38 39 40 41 41 40 40 40 40 39 37 36 37 40 41 42 43 45 45 45 44 43 40 37 35 33 31 28 27 26 27 28 29 29 29 29 30 32 36 42 49 57 63 67 69 71 73
44 44 43 43 41 39 39 41 41 40 38 38 39 39 39 38 38 39 39 40 40 39 39 39 39 38 36 37 39 40 41 41 42 44 45 46 46 45 42 40 38 35 32 30 28 26 25 25 26 28 28 28 29 29 31 35 41 49 56 62 65 67 68
42 43 41 40 39 37 36 37 39 38 37 37 38 38 38 37 37 38 39 39 39 39 39 38 38 37 37 38 39 40 40 39 40 42 44 45 47 47 44 42 41 38 35 32 30 28 26 24 24 25 27 28 28 29 29 31 35 41 48 54 60 63 65
39 39 39 38 37 36 35 34 36 38 37 36 37 37 37 37 37 38 38 38 38 38 38 37 37 37 38 38 39 39 38 37 37 39 42 45 47 48 46 46 44 40 37 35 32 30 28 26 24 24 25 26 28 29 29 31 32 35 39 46 52 57 60
37 36 36 36 38 37 35 33 34 36 36 35 36 36 36 36 37 37 38 37 37 37 37 37 37 38 38 39 39 38 36 34 35 37 40 44 46 47 48 49 47 43 40 38 35 33 31 29 28 27 26 27 28 29 30 32 33 33 35 39 44 49 54
36 34 33 34 35 36 34 33 33 34 34 34 35 35 35 35 36 37 37 36 36 35 36 36 37 38 39 38 37 35 33 33 34 36 38 41 44 47 50 51 49 46 44 41 38 36 34 32 31 30 30 30 30 31 31 33 34 35 35 36 39 42 47
32 32 32 32 32 32 32 32 32 32 33 33 34 34 34 35 35 36 36 35 34 34 35 36 37 38 38 37 35 34 33 33 34 34 36 39 42 47 50 51 50 49 47 44 42 39 37 35 34 33 34 34 34 34 35 35 35 35 36 37 38 40 42
25 27 29 29 29 30 31 31 31 31 32 32 33 33 34 34 34 34 34 33 33 33 35 37 38 37 36 35 34 33 33 33 33 32 33 36 40 44 48 50 51 51 49 47 45 42 40 38 37 37 37 37 38 38 38 37 36 35 36 37 39 42 43
23 24 26 27 27 28 29 30 29 30 31 31 31 32 33 33 33 32 32 31 32 34 36 37 37 36 35 34 34 33 32 31 30 29 30 33 37 41 44 47 49 51 50 48 46 44 42 40 39 39 40 41 41 41 40 38 37 37 37 39 41 44 46
24 25 26 26 27 27 28 28 28 29 30 30 30 31 32 32 31 31 31 31 32 34 35 35 35 34 34 33 33 32 30 29 28 28 30 32 35 37 40 42 45 47 48 47 46 44 42 41 41 41 42 42 42 41 39 38 38 39 40 41 43 45 47
26 25 26 26 26 26 26 27 27 29 29 29 30 31 32 31 30 30 30 31 33 34 34 34 33 33 33 32 31 30 27 27 28 29 30 31 32 34 36 37 39 41 43 44 44 43 42 41 42 42 42 42 41 40 39 39 39 40 40 41 43 45 48
25 24 24 24 24 25 25 26 26 27 28 28 29 30 30 29 29 30 30 31 32 33 33 32 32 33 32 31 30 27 26 26 28 30 30 29 30 32 33 34 36 37 39 40 40 40 39 40 40 40 40 40 40 39 38 38 39 38 38 40 42 44 47
22 23 23 23 24 25 25 25 25 26 27 27 28 29 29 29 29 30 30 30 31 32 32 31 32 31 31 29 28 26 26 26 28 29 29 29 29 30 31 33 34 35 35 36 37 37 36 37 38 38 38 38 38 36 36 36 36 35 35 36 38 40 43
21 22 23 23 24 25 25 25 25 25 26 26 27 28 29 29 29 29 29 30 30 30 31 31 31 30 29 28 27 26 25 26 27 28 29 29 29 30 30 31 32 32 33 34 34 34 35 35 36 36 37 36 36 34 34 33 32 31 31 31 32 35 39
21 22 23 23 24 25 26 26 25 25 25 26 27 28 29 29 28 28 28 28 29 29 30 29 29 29 28 28 27 25 24 24 25 27 28 28 29 29 30 30 30 31 32 32 33 33 33 34 35 35 36 35 34 32 31 30 28 28 27 27 28 31 35
20 22 23 24 24 26 27 26 25 24 25 26 27 28 28 27 27 27 27 28 29 29 29 29 29 29 27 26 25 24 22 22 23 25 27 28 29 30 30 30 31 31 31 32 32 32 32 33 34 35 35 35 33 30 29 27 26 25 24 24 26 29 32
19 19 20 22 24 25 25 24 23 23 24 25 26 27 26 26 27 27 27 28 28 28 28 28 28 27 26 25 24 23 22 22 22 24 26 27 28 29 30 31 31 31 32 32 31 31 32 33 34 35 35 34 32 29 27 26 24 23 22 23 25 28 31
21 19 19 21 23 24 24 24 23 23 24 25 25 26 26 26 27 27 28 28 27 27 27 27 27 26 25 25 24 23 22 22 22 23 24 26 28 29 30 31 32 32 32 32 32 31 31 32 33 35 35 35 32 29 27 25 24 22 22 22 24 27 31
23 22 20 20 22 23 24 23 23 23 23 24 25 26 26 26 27 28 28 27 26 26 26 26 26 26 25 24 23 22 22 21 21 22 24 25 27 28 30 31 31 32 32 32 32 32 31 32 33 35 36 35 34 30 28 26 24 23 22 22 23 26 29
22 23 22 22 22 23 24 23 23 23 24 25 25 26 25 26 27 28 27 26 26 26 26 26 26 25 24 23 23 22 22 21 21 22 23 25 26 28 29 30 30 31 31 31 32 32 32 32 33 34 35 36 35 32 29 27 25 23 22 22 22 24 27
20 21 23 23 23 23 24 24 24 24 24 25 25 25 26 26 27 27 27 26 26 26 26 26 26 25 24 23 22 22 21 21 21 22 23 24 25 26 27 28 29 29 29 30 30 31 32 32 33 34 35 36 36 34 31 28 27 25 23 22 22 23 24
Wind_Direction
285 285 285 285 285 286 287 287 286 283 279 277 277 278 276 271 269 269 270 271 271 271 272 271 270 268 266 266 266 265 264 265 265 266 267 265 258 251 246 243 241 239 238 237 235 235 233 231 230 230 229 228 228 228 228 226 224 222 220 218 215 213 212
282 282 282 282 282 283 284 284 283 280 277 274 274 276 275 270 267 267 268 269 270 270 270 270 270 268 266 265 264 264 263 262 263 265 267 267 263 255 248 245 243 241 239 238 237 236 235 232 231 231 230 229 230 230 230 229 228 226 224 222 220 217 215
278 278 278 278 279 279 280 281 280 278 275 272 271 274 273 269 266 265 266 268 268 269 269 269 269 268 266 264 263 263 263 262 261 263 265 267 266 261 253 247 244 243 241 239 238 237 236 234 232 232 232 231 231 231 232 232 231 229 227 226 224 221 219
275 275 275 275 275 276 277 278 277 276 272 269 269 271 272 269 265 263 264 266 267 267 268 268 268 268 266 264 262 261 262 262 261 261 262 265 266 264 258 251 247 244 243 241 239 238 238 237 234 233 233 233 233 233 233 233 233 232 230 229 227 225 223
272 272 272 272 272 273 274 274 274 273 269 267 267 269 270 268 263 262 262 263 265 266 266 267 267 267 266 264 261 260 260 261 261 261 261 263 265 265 262 255 249 246 244 243 241 239 239 238 237 235 234 234 234 234 234 234 234 233 233 231 230 229 227
271 270 270 271 271 271 271 271 271 269 267 264 265 267 269 267 262 260 260 261 263 264 265 266 266 266 266 264 261 259 259 259 260 261 261 262 263 265 264 259 253 249 246 244 243 241 239 239 238 237 236 235 235 235 235 235 235 235 234 234 233 232 231
270 269 269 270 270 269 269 269 268 267 264 263 264 265 267 266 262 258 258 260 261 263 263 264 265 264 264 263 260 258 258 258 257 258 260 261 262 264 265 262 256 251 248 246 245 243 241 239 239 239 238 236 235 235 235 236 236 236 236 235 235 234 234
269 268 268 269 269 268 267 267 266 264 262 262 263 264 265 266 262 258 257 259 260 261 262 262 262 262 263 262 260 257 256 256 255 256 258 260 261 263 265 264 260 253 249 248 246 245 243 242 240 239 239 238 237 236 236 236 236 237 237 237 236 236 236
266 266 266 267 268 267 266 266 265 262 261 261 262 264 264 265 263 258 257 258 259 260 260 260 260 260 260 261 260 257 254 254 253 253 256 258 259 261 263 265 263 257 252 249 248 247 246 245 243 241 239 239 238 237 236 236 236 236 237 237 237 237 237
264 264 264 264 265 265 265 264 264 261 260 260 261 263 263 263 262 258 256 257 258 258 258 258 259 259 259 260 260 257 253 252 251 250 252 255 257 258 261 263 264 260 254 250 249 248 248 247 246 244 241 239 238 238 237 237 236 236 237 237 238 238 238
264 262 261 261 262 263 264 263 262 261 260 260 261 262 261 262 261 257 255 256 257 257 258 257 258 258 258 259 259 256 253 251 249 248 249 251 254 256 259 262 263 262 257 252 250 249 248 248 249 247 244 241 238 238 237 237 237 237 237 237 238 238 239
264 261 258 259 261 262 261 261 260 260 260 260 260 260 259 260 260 257 254 255 256 256 256 257 257 257 258 258 258 255 253 250 248 246 246 248 250 252 255 259 261 262 260 254 250 250 249 249 249 250 248 244 240 238 237 237 237 237 237 237 238 238 239
264 261 256 257 260 259 258 260 260 260 260 260 259 258 257 258 259 256 254 255 256 255 255 255 256 256 257 258 257 255 252 250 247 245 244 244 247 249 251 254 257 260 261 258 253 250 250 250 250 251 251 249 243 239 236 236 236 236 237 237 238 238 238
262 260 255 255 257 257 257 259 260 260 260 259 257 255 254 255 257 256 254 255 255 254 254 254 254 255 256 257 256 254 251 249 247 245 242 241 243 245 247 250 253 256 258 259 256 252 250 250 251 251 251 251 247 241 237 235 234 235 236 236 237 238 238
256 255 253 253 255 257 257 259 260 260 259 257 254 252 251 253 255 254 254 254 254 253 252 252 253 255 256 257 255 253 251 249 247 245 242 240 239 241 243 246 249 252 254 255 256 253 250 249 250 251 251 251 249 245 240 236 234 234 234 235 236 238 239
250 252 253 251 253 258 260 259 258 258 258 255 251 250 250 251 253 253 253 254 253 252 252 252 253 254 256 256 255 254 253 251 248 245 242 239 237 238 240 242 244 247 249 251 253 253 251 249 249 249 250 251 250 247 243 239 235 233 233 233 235 236 238
248 251 254 250 250 257 261 260 257 256 256 254 250 249 249 250 252 252 252 254 253 252 251 251 253 254 255 254 254 255 255 253 250 246 242 239 236 235 236 239 241 242 244 247 250 253 253 251 249 248 248 249 250 248 245 241 237 234 233 232 233 235 237
250 251 251 248 250 255 259 259 256 254 255 253 250 248 248 249 251 251 251 253 252 251 251 251 252 253 254 254 255 256 257 256 253 248 243 240 237 234 234 236 238 239 240 241 245 249 251 252 251 250 249 248 248 248 246 243 239 236 233 232 233 234 236
251 252 250 248 250 253 256 259 256 253 253 251 247 246 246 249 250 250 250 252 251 250 250 250 251 252 253 254 256 258 259 258 255 250 244 240 237 234 233 235 235 236 237 238 240 243 247 249 249 251 251 250 248 247 246 245 242 238 234 232 232 233 234
249 252 252 251 251 251 255 258 255 252 251 249 245 243 245 248 249 249 250 251 250 249 250 250 251 252 253 255 257 260 261 260 255 250 245 241 238 234 233 234 234 234 235 237 237 239 242 246 247 248 249 250 249 248 247 246 245 241 237 234 233 232 233
249 251 252 252 251 251 253 256 254 251 249 246 243 242 244 247 248 248 249 250 249 249 249 250 251 251 253 255 258 261 262 258 254 250 245 242 238 235 233 234 234 234 234 235 236 237 239 243 246 248 249 249 249 248 247 247 247 246 242 239 236 234 234
254 252 252 251 251 251 252 254 253 250 246 243 241 241 243 246 247 247 248 249 248 248 249 249 250 251 253 256 259 261 261 258 255 251 246 241 237 235 234 235 235 235 234 234 235 237 239 242 246 249 250 250 249 248 246 246 247 249 249 246 243 239 237
258 252 251 252 252 251 251 252 250 247 243 240 239 240 243 245 246 246 247 248 247 247 248 248 249 251 254 257 260 261 261 260 258 253 246 240 237 235 235 235 236 236 235 235 235 236 238 241 245 248 250 251 250 249 247 246 246 248 250 251 249 246 241
262 256 254 254 254 252 251 250 247 243 240 238 238 240 242 244 244 245 246 246 245 245 246 247 249 252 254 257 260 262 263 263 260 254 245 239 236 234 233 234 235 236 236 235 236 237 239 241 244 247 249 249 250 250 249 249 248 249 249 249 248 248 246
261 258 256 256 256 255 252 247 243 240 238 236 236 239 242 243 243 244 244 244 243 244 245 247 249 252 254 257 260 263 265 264 260 252 244 237 234 232 232 232 234 236 237 236 237 238 240 242 244 245 247 248 249 250 250 250 250 251 252 250 247 245 244
260 258 258 258 258 255 249 243 240 238 236 235 236 240 242 243 243 243 242 241 242 244 245 247 249 252 254 257 260 264 265 262 257 250 243 237 233 231 231 231 233 235 236 237 237 238 240 242 244 244 245 246 247 248 249 250 252 254 253 251 248 243 240
261 258 259 260 258 253 245 238 236 235 234 235 238 241 243 242 241 241 241 240 242 244 245 247 249 251 253 256 260 264 263 259 254 249 244 239 234 231 230 231 232 233 234 236 236 237 239 240 242 243 243 244 245 246 248 252 255 255 253 251 249 245 238
262 259 259 259 256 250 242 236 235 234 233 235 239 242 242 240 240 240 240 240 242 244 245 247 248 250 253 257 260 261 259 256 253 249 245 240 235 232 230 230 231 232 233 234 236 236 237 238 240 241 241 242 242 245 249 253 255 254 253 252 250 246 238
263 260 258 258 255 250 243 238 234 232 232 235 239 241 240 238 238 239 239 240 242 244 245 246 248 250 253 256 258 259 258 256 252 247 243 239 235 232 230 230 230 231 231 233 234 235 236 237 238 238 239 239 241 245 251 253 253 251 251 251 249 245 238
260 257 256 256 254 249 242 235 230 229 231 236 239 239 238 238 238 239 239 240 242 243 244 246 247 249 252 255 258 261 260 256 251 245 241 238 235 233 231 230 230 231 232 233 234 235 236 237 237 237 236 237 240 246 251 252 250 249 248 247 245 242 236
259 257 256 255 252 246 238 230 226 227 232 237 238 238 238 238 239 239 238 238 240 242 243 245 246 249 252 256 259 260 259 255 249 243 239 236 234 232 231 230 230 231 232 233 234 235 236 237 236 235 235 236 239 245 249 250 249 248 246 243 240 237 233
264 262 259 255 250 243 232 224 223 227 232 236 238 237 237 239 239 239 238 237 239 240 242 244 247 249 253 256 257 258 257 254 248 242 238 235 233 231 230 230 230 231 232 233 234 235 236 236 235 234 234 236 239 242 246 248 248 247 244 242 238 234 230
261 265 263 257 249 238 226 220 221 227 232 236 238 237 237 238 239 239 238 238 238 240 242 244 247 249 252 254 256 258 258 255 250 243 238 234 232 231 230 229 230 231 232 233 234 235 235 235 234 233 234 236 238 240 243 245 246 244 242 240 238 235 231
254 259 262 258 246 233 223 218 220 226 232 235 236 235 236 238 238 239 239 238 239 240 241 243 246 248 251 254 256 257 257 255 251 244 238 233 231 230 229 229 230 231 232 233 234 234 235 235 234 233 233 236 238 239 240 241 242 243 241 239 237 236 234
252 254 256 253 242 230 223 219 220 226 231 233 233 233 235 236 237 238 239 239 239 240 241 242 244 246 249 252 255 256 256 255 252 246 239 232 229 228 229 229 230 231 232 233 234 234 235 235 235 233 233 234 237 239 239 239 240 240 240 239 237 237 236
256 252 249 245 237 228 223 220 221 226 229 229 230 231 233 234 236 237 238 239 239 239 240 241 243 245 247 250 252 254 254 254 252 248 241 234 229 228 228 229 230 231 232 233 234 234 235 236 236 234 233 233 236 238 239 239 239 239 239 239 239 238 238
Height
5390 5388 5386 5384 5382 5379 5376 5373 5370 5368 5366 5364 5363 5361 5359 5358 5357 5356 5355 5354 5354 5353 5352 5351 5350 5350 5349 5348 5348 5347 5347 5346 5346 5345 5346 5346 5347 5348 5350 5352 5354 5358 5360 5362 5365 5370 5376 5385 5393 5399 5406 5413 5420 5428 5435 5442 5449 5456 5462 5469 5476 5483 5490
5379 5377 5375 5373 5372 5369 5367 5364 5362 5360 5358 5356 5355 5353 5352 5351 5350 5349 5348 5347 5347 5346 5345 5345 5344 5343 5343 5342 5342 5342 5342 5342 5341 5341 5341 5341 5341 5343 5344 5345 5347 5350 5352 5354 5357 5360 5364 5372 5380 5386 5393 5400 5408 5415 5422 5429 5437 5444 5450 5457 5465 5472 5479
5368 5366 5364 5362 5361 5359 5357 5355 5353 5351 5350 5349 5347 5346 5344 5343 5342 5342 5341 5341 5340 5339 5338 5338 5337 5337 5336 5336 5336 5336 5335 5336 5336 5337 5336 5335 5336 5337 5338 5339 5341 5342 5344 5346 5348 5351 5354 5360 5367 5374 5380 5387 5396 5402 5408 5416 5424 5432 5438 5445 5453 5460 5467
5356 5354 5353 5352 5350 5349 5347 5346 5344 5343 5342 5341 5339 5338 5337 5336 5335 5335 5334 5334 5333 5332 5332 5332 5331 5330 5330 5330 5330 5329 5329 5330 5330 5331 5331 5331 5330 5331 5332 5332 5334 5335 5336 5338 5341 5343 5345 5349 5355 5361 5367 5374 5382 5389 5396 5404 5412 5418 5425 5433 5441 5448 5455
5344 5343 5342 5341 5339 5338 5337 5336 5335 5334 5333 5332 5331 5330 5330 5329 5328 5327 5327 5327 5326 5326 5325 5325 5325 5324 5323 5323 5323 5323 5323 5323 5324 5325 5326 5325 5325 5326 5326 5326 5327 5328 5329 5331 5333 5335 5338 5340 5344 5349 5355 5361 5368 5375 5383 5391 5398 5406 5414 5422 5429 5436 5443
5333 5332 5331 5330 5329 5328 5327 5326 5325 5325 5324 5324 5323 5323 5322 5321 5321 5320 5320 5320 5320 5319 5319 5319 5318 5317 5317 5317 5317 5316 5316 5317 5318 5319 5319 5319 5320 5320 5320 5320 5321 5322 5323 5324 5326 5328 5331 5333 5336 5339 5344 5350 5356 5362 5369 5377 5385 5394 5402 5409 5416 5423 5431
5321 5321 5321 5320 5319 5318 5317 5316 5316 5316 5316 5315 5315 5315 5314 5314 5314 5313 5313 5313 5313 5313 5313 5312 5312 5311 5311 5311 5311 5310 5310 5311 5312 5312 5313 5313 5314 5315 5315 5315 5315 5316 5317 5318 5319 5321 5324 5327 5329 5332 5335 5339 5344 5351 5358 5365 5372 5380 5388 5395 5403 5411 5418
5309 5310 5310 5310 5309 5309 5308 5308 5307 5307 5307 5307 5307 5307 5307 5307 5306 5306 5306 5306 5306 5306 5306 5306 5306 5305 5304 5304 5304 5304 5305 5305 5306 5306 5306 5307 5308 5309 5310 5310 5310 5310 5311 5313 5314 5315 5318 5321 5323 5325 5328 5330 5334 5341 5347 5353 5359 5366 5374 5382 5390 5398 5405
5297 5298 5299 5299 5299 5299 5299 5299 5299 5298 5298 5299 5299 5299 5299 5299 5299 5299 5300 5300 5299 5299 5299 5299 5299 5299 5298 5297 5298 5299 5299 5299 5300 5300 5301 5301 5302 5304 5304 5305 5305 5305 5306 5308 5309 5311 5313 5315 5317 5320 5322 5324 5327 5330 5335 5340 5346 5355 5362 5368 5377 5385 5392
5286 5287 5288 5288 5289 5289 5290 5290 5290 5289 5289 5290 5291 5291 5292 5291 5292 5292 5292 5293 5292 5292 5292 5293 5293 5292 5292 5291 5292 5293 5294 5293 5294 5295 5295 5295 5297 5298 5299 5300 5300 5301 5302 5303 5304 5306 5308 5309 5311 5314 5317 5318 5319 5322 5325 5330 5337 5345 5351 5356 5364 5372 5379
5275 5276 5277 5277 5278 5279 5280 5281 5280 5280 5281 5281 5282 5283 5284 5284 5284 5285 5285 5285 5285 5285 5285 5286 5286 5286 5285 5286 5287 5287 5287 5287 5288 5289 5290 5290 5291 5293 5294 5295 5295 5296 5297 5298 5299 5301 5303 5304 5306 5308 5310 5311 5313 5315 5318 5321 5326 5333 5339 5344 5351 5359 5365
5264 5265 5267 5268 5269 5270 5270 5271 5271 5271 5272 5273 5274 5275 5276 5276 5276 5277 5278 5278 5278 5278 5278 5279 5279 5279 5279 5280 5281 5281 5281 5282 5283 5283 5284 5285 5286 5287 5289 5289 5290 5291 5292 5293 5294 5296 5297 5299 5301 5302 5303 5305 5306 5308 5310 5313 5317 5322 5328 5334 5340 5346 5352
5253 5255 5257 5258 5259 5260 5261 5261 5262 5262 5263 5264 5265 5267 5268 5269 5269 5269 5270 5271 5271 5271 5272 5272 5272 5273 5273 5274 5275 5275 5275 5275 5276 5278 5279 5280 5281 5282 5283 5284 5284 5285 5286 5288 5289 5290 5292 5294 5295 5297 5297 5298 5299 5301 5302 5305 5308 5312 5317 5323 5329 5334 5340
5244 5245 5247 5249 5250 5251 5252 5252 5252 5254 5255 5255 5257 5258 5260 5261 5262 5262 5263 5263 5264 5264 5265 5265 5265 5266 5267 5268 5269 5269 5269 5269 5270 5271 5273 5274 5276 5277 5278 5279 5280 5280 5282 5283 5283 5284 5286 5288 5290 5291 5292 5292 5292 5294 5295 5297 5300 5304 5308 5314 5318 5324 5330
5233 5235 5236 5239 5241 5242 5243 5243 5244 5245 5246 5247 5249 5250 5252 5254 5255 5255 5256 5256 5256 5257 5258 5258 5259 5260 5261 5262 5262 5262 5262 5263 5264 5265 5267 5269 5271 5272 5273 5274 5275 5275 5277 5278 5278 5278 5280 5282 5284 5285 5287 5287 5287 5288 5289 5291 5294 5297 5301 5306 5310 5315 5321
5224 5225 5227 5230 5232 5233 5234 5234 5235 5237 5238 5239 5241 5243 5244 5246 5247 5248 5249 5249 5249 5250 5251 5252 5253 5254 5255 5256 5256 5255 5256 5257 5258 5259 5261 5263 5265 5266 5268 5269 5270 5271 5273 5273 5273 5274 5275 5276 5278 5280 5281 5282 5283 5284 5285 5286 5289 5291 5294 5298 5302 5307 5312
5215 5217 5219 5221 5223 5225 5226 5226 5227 5229 5230 5232 5234 5235 5237 5238 5240 5241 5242 5242 5242 5243 5244 5246 5247 5248 5249 5249 5249 5249 5249 5251 5252 5252 5254 5257 5259 5261 5263 5264 5264 5266 5268 5269 5269 5270 5271 5272 5273 5274 5276 5277 5278 5279 5281 5282 5284 5286 5289 5292 5296 5300 5304
5207 5209 5211 5213 5215 5217 5218 5219 5220 5221 5223 5224 5226 5228 5230 5231 5233 5234 5235 5236 5236 5237 5238 5240 5241 5242 5242 5243 5243 5243 5244 5245 5246 5247 5249 5251 5252 5255 5258 5259 5259 5261 5263 5265 5266 5266 5267 5268 5269 5269 5271 5272 5273 5275 5277 5278 5279 5281 5285 5288 5291 5294 5298
5200 5202 5204 5206 5207 5209 5211 5211 5212 5214 5216 5217 5219 5221 5223 5225 5226 5227 5228 5229 5230 5230 5231 5233 5235 5235 5236 5236 5237 5237 5238 5239 5240 5241 5243 5244 5246 5249 5252 5253 5253 5256 5258 5260 5262 5263 5263 5264 5265 5266 5266 5268 5269 5270 5272 5273 5275 5278 5281 5283 5286 5289 5293
5194 5195 5197 5199 5200 5202 5204 5204 5205 5207 5209 5210 5212 5214 5216 5218 5219 5220 5221 5223 5224 5224 5226 5227 5229 5229 5230 5230 5231 5231 5232 5234 5234 5235 5236 5237 5240 5244 5246 5245 5247 5251 5253 5255 5257 5259 5259 5260 5261 5262 5263 5264 5265 5266 5267 5268 5270 5273 5276 5279 5282 5285 5288
5187 5189 5190 5192 5193 5195 5197 5198 5199 5200 5202 5204 5205 5207 5210 5212 5213 5214 5215 5217 5218 5219 5220 5221 5222 5223 5224 5224 5225 5226 5227 5228 5228 5229 5230 5231 5234 5237 5238 5238 5241 5245 5247 5250 5252 5254 5255 5256 5257 5258 5259 5260 5261 5262 5263 5264 5265 5268 5271 5275 5278 5280 5283
5182 5183 5184 5186 5187 5188 5190 5191 5192 5194 5195 5197 5199 5201 5203 5205 5206 5208 5210 5211 5212 5213 5214 5215 5216 5217 5218 5219 5220 5221 5221 5222 5222 5223 5224 5226 5228 5229 5230 5232 5235 5238 5241 5244 5247 5249 5251 5252 5253 5254 5255 5255 5256 5257 5259 5260 5262 5264 5266 5269 5272 5275 5278
5176 5177 5179 5180 5181 5182 5183 5185 5186 5188 5189 5191 5193 5195 5197 5199 5201 5202 5204 5205 5206 5207 5208 5209 5210 5211 5212 5213 5214 5215 5215 5216 5216 5217 5219 5220 5221 5223 5224 5226 5229 5231 5234 5238 5241 5243 5246 5247 5248 5249 5250 5250 5251 5252 5254 5256 5259 5261 5262 5264 5266 5268 5270
5172 5173 5174 5175 5176 5177 5178 5179 5180 5182 5183 5186 5188 5190 5192 5194 5195 5197 5199 5200 5201 5201 5202 5203 5204 5206 5207 5208 5208 5209 5210 5210 5211 5212 5214 5214 5215 5217 5219 5221 5222 5224 5228 5232 5235 5238 5240 5242 5243 5244 5244 5245 5245 5247 5249 5252 5254 5256 5258 5259 5260 5261 5263
5167 5168 5169 5169 5170 5171 5172 5173 5175 5176 5178 5180 5182 5184 5186 5188 5190 5192 5193 5194 5195 5196 5197 5198 5199 5200 5201 5202 5203 5203 5204 5205 5205 5206 5207 5208 5210 5211 5213 5215 5217 5219 5222 5226 5229 5232 5235 5236 5238 5239 5239 5239 5240 5242 5245 5247 5248 5250 5251 5252 5253 5254 5256
5163 5163 5164 5165 5166 5167 5167 5168 5169 5171 5173 5175 5177 5179 5181 5183 5185 5186 5187 5188 5189 5190 5192 5194 5195 5196 5196 5197 5198 5198 5199 5200 5200 5200 5201 5203 5205 5206 5208 5210 5212 5214 5217 5220 5223 5226 5229 5230 5231 5232 5233 5235 5236 5238 5240 5241 5242 5243 5244 5245 5246 5248 5249
5158 5159 5159 5160 5161 5162 5162 5163 5165 5166 5168 5170 5173 5174 5176 5178 5180 5181 5182 5183 5184 5186 5187 5189 5190 5191 5191 5192 5193 5194 5194 5195 5195 5195 5196 5198 5199 5201 5203 5205 5207 5210 5212 5215 5218 5221 5223 5224 5225 5227 5228 5230 5232 5233 5235 5235 5236 5237 5237 5238 5238 5240 5242
5153 5154 5155 5156 5156 5157 5158 5159 5160 5161 5164 5166 5168 5170 5172 5173 5175 5176 5177 5178 5180 5181 5182 5184 5185 5186 5187 5188 5188 5189 5190 5190 5190 5190 5191 5193 5195 5197 5199 5201 5203 5205 5208 5210 5212 5215 5217 5219 5220 5222 5223 5225 5227 5229 5230 5230 5231 5231 5231 5231 5232 5233 5235
5149 5150 5150 5151 5151 5152 5153 5154 5155 5157 5159 5161 5163 5165 5167 5168 5170 5171 5173 5174 5175 5176 5178 5179 5181 5182 5183 5183 5184 5184 5185 5185 5185 5186 5187 5188 5190 5192 5194 5197 5199 5201 5204 5206 5208 5210 5212 5214 5215 5217 5219 5221 5223 5224 5225 5225 5226 5225 5225 5226 5226 5227 5228
5144 5145 5146 5146 5147 5148 5148 5150 5151 5153 5155 5157 5159 5160 5162 5163 5165 5167 5169 5170 5171 5172 5173 5175 5176 5177 5178 5178 5179 5180 5180 5181 5181 5182 5183 5184 5185 5188 5190 5192 5195 5197 5199 5201 5203 5205 5207 5209 5210 5212 5214 5216 5218 5220 5220 5221 5221 5221 5221 5222 5222 5222 5223
5140 5140 5141 5141 5142 5143 5144 5146 5147 5149 5151 5152 5154 5156 5157 5159 5161 5163 5164 5166 5167 5168 5169 5170 5171 5173 5174 5174 5175 5175 5176 5177 5177 5178 5179 5180 5182 5183 5186 5188 5191 5193 5195 5197 5199 5201 5203 5204 5206 5207 5210 5212 5214 5215 5216 5217 5217 5217 5217 5218 5218 5219 5220
5135 5136 5136 5137 5137 5139 5140 5142 5144 5145 5147 5148 5150 5152 5153 5155 5156 5158 5160 5161 5162 5163 5165 5166 5167 5168 5169 5170 5171 5171 5172 5172 5173 5174 5175 5176 5178 5180 5182 5184 5186 5189 5191 5193 5195 5197 5198 5200 5201 5203 5205 5207 5210 5211 5212 5213 5213 5213 5214 5215 5215 5216 5217
5131 5132 5132 5133 5133 5135 5136 5138 5140 5141 5143 5145 5146 5148 5149 5151 5152 5154 5155 5157 5158 5160 5161 5162 5163 5164 5165 5166 5166 5167 5168 5168 5169 5170 5171 5172 5174 5176 5178 5180 5182 5184 5186 5188 5191 5193 5194 5196 5197 5199 5201 5203 5205 5207 5208 5209 5209 5210 5211 5211 5212 5213 5214
5127 5127 5128 5129 5130 5131 5133 5134 5136 5138 5140 5141 5143 5144 5145 5147 5148 5150 5151 5153 5154 5156 5157 5158 5159 5160 5161 5162 5163 5163 5164 5164 5165 5166 5167 5168 5170 5172 5174 5176 5178 5180 5182 5184 5186 5188 5190 5192 5193 5194 5196 5198 5200 5203 5204 5205 5206 5207 5208 5208 5209 5210 5211
5122 5123 5124 5125 5126 5127 5129 5131 5133 5135 5136 5138 5139 5141 5142 5143 5144 5146 5147 5149 5150 5152 5153 5154 5155 5156 5157 5158 5159 5159 5160 5160 5161 5162 5163 5164 5166 5168 5170 5172 5174 5176 5178 5180 5182 5184 5186 5187 5189 5190 5192 5194 5196 5198 5200 5202 5203 5204 5205 5205 5206 5207 5208
5118 5119 5119 5120 5122 5123 5125 5127 5129 5131 5133 5134 5136 5137 5138 5139 5140 5142 5144 5145 5146 5148 5149 5150 5151 5152 5153 5154 5155 5156 5156 5156 5157 5158 5159 5160 5162 5163 5165 5167 5169 5171 5174 5176 5178 5180 5181 5183 5184 5186 5188 5189 5191 5194 5196 5198 5199 5200 5201 5202 5203 5204 5205